Miscellaneous Local Product
Issued by NWS Hastings, NE

Home | Current Version | Previous Version | Text Only | Print | Product List | Glossary On
Versions: 1 2 3 4 5 6 7 8 9 10 11 12 13 14 15 16 17 18 19 20 21 22 23 24 25 26 27 28 29 30 31 32 33 34 35 36 37 38 39 40 41 42 43 44 45 46 47 48 49 50
000
AXUS43 KGID 281102
MISGRI

GID CWA HOURLY WEATHER ROUNDUP
NATIONAL WEATHER SERVICE HASTINGS NE
600 AM CDT MON JUL 28 2014

NOTE: "FAIR" INDICATES FEW OR NO CLOUDS BELOW 12,000 FEET WITH NO
SIGNIFICANT WEATHER AND/OR OBSTRUCTIONS TO VISIBILITY.

...SOUTH CENTRAL NEBRASKA...

CITY           SKY/WX    TMP DP  RH WIND       PRES   REMARKS
GRAND ISLAND   CLEAR     56  54  93 W5        30.30R
HASTINGS       CLEAR     57  53  86 N6        30.29R
KEARNEY        CLEAR     57  54  88 NW3       30.32R
ORD            CLEAR     52  51  97 W5        30.30R
YORK             N/A     55  55 100 NW7       30.28R
AURORA         CLEAR     57  57 100 NW3       30.28R
LEXINGTON      CLEAR     55  54  95 CALM      30.32R
HOLDREGE       PTCLDY    56  55  94 N3        30.30S
HEBRON         CLEAR     58  54  85 N3        30.27R

...NEBRASKA PANHANDLE...

CITY           SKY/WX    TMP DP  RH WIND       PRES   REMARKS
CHADRON        CLEAR     55  50  83 N3        30.34S
ALLIANCE       CLEAR     53  48  83 E7        30.34S
SCOTTSBLUFF    CLEAR     61  49  64 E12       30.32S
SIDNEY         CLEAR     59  48  67 SE8       30.34F

...WESTERN AND NORTH CENTRAL NEBRASKA...

CITY           SKY/WX    TMP DP  RH WIND       PRES   REMARKS
VALENTINE      PTCLDY    50  48  93 CALM      30.34S
AINSWORTH      PTCLDY    52  52 100 CALM      30.34R
ONEILL         CLEAR     53  50  90 W5        30.31R
BROKEN BOW     CLEAR     53  51  93 CALM      30.33R
IMPERIAL       PTCLDY    57  50  77 E3        30.32S
NORTH PLATTE   CLEAR     53  50  89 E3        30.33R
MCCOOK         PTCLDY    58  54  86 E3        30.31R

...EASTERN NEBRASKA...

CITY           SKY/WX    TMP DP  RH WIND       PRES   REMARKS
NORFOLK        CLEAR     54  52  93 NW5       30.26R
SO SIOUX CITY  CLEAR     56  53  90 CALM      30.24R
ALBION         CLEAR     53  51  93 CALM      30.29R
OMAHA EPPLEY   CLEAR     58  54  86 N6        30.22S
OFFUTT AFB     CLEAR     60  59  94 N6        30.21R
MILLARD        CLEAR     60  55  86 NW6       30.22R
LINCOLN        CLEAR     61  54  77 NW7       30.25R
NEBRASKA CITY  CLEAR     56  56 100 NW6       30.22S
BEATRICE       CLEAR     55  54  95 N3        30.24R
FALLS CITY     NOT AVBL

...NORTHERN KANSAS...

CITY           SKY/WX    TMP DP  RH WIND       PRES   REMARKS
GOODLAND       PTCLDY    59  53  80 SE6       30.33R
HILL CITY      PTCLDY    62  54  74 CALM      30.29R
NORTON         SUNNY     57  52  82 CALM      30.30R
PHILLIPSBURG   CLEAR     63  57  82 N7        30.28R
SMITH CENTER   CLEAR     61  57  88 NE7       30.28R
HAYS           PTCLDY    64  54  68 NE9       30.27R
RUSSELL        PTCLDY    61  54  77 NE8       30.25R
CONCORDIA      CLEAR     60  57  89 N3        30.25R
SALINA         CLEAR     63  56  78 N7        30.24R
TOPEKA         CLEAR     63  58  83 N7        30.20R



USA.gov is the U.S. government's official web portal to all federal, state and local government web resources and services.